Language: 


Des rapports , des résumés tant et plus, au choix de chacun....


Données statistiques de la station
Quotidien Rapport Nil La, TWC- Unités:  Métrique    Anglais   les deux
« Précédent Jour
Suivant Jour »
Quotidien Hebdomadaire Mensuel Annuel Actuel
  Haut: Bas: Moyen:
Température: -17.8 °C -19.6 °C -17.2 °C
Pt de rosée: -17.8 °C -23.3 °C -22.3 °C
Humidité: Humidity % 35 % 52 %
Vitesse du vent: 0 km/h 6.9 km/h 24 km/h
Rafales: 0 km/h - -
Vent:- - ENE
Pression: 0 hPa 34428.8 hPa -
Précipitation: 0 mm    
Historical Graphs
 
 
Données statistiques pour Nil La, TWC-
Heure Température Point de rosée Pression Vent Vitesse du vent Refales Humidité Pluie (taux horaire)
-17.8 °C -17.8 °C 0 hPa Calm     Humidity % 0 mm
00:00 -18.2 °C -22.2 °C 34476.3 hPa ENE 16.9 km/h 26.2 km/h 63 % 0 mm
00:05 -18.2 °C -22.2 °C 34476.3 hPa ENE 14 km/h 26.2 km/h 63 % 0 mm
00:10 -18.3 °C -22.2 °C 34476.3 hPa ENE 19.2 km/h 22.5 km/h 63 % 0 mm
00:15 -18.3 °C -22.2 °C 34476.3 hPa East 15 km/h 22.5 km/h 62 % 0 mm
00:20 -18.3 °C -22.2 °C 34476.3 hPa NE 15.6 km/h 22.5 km/h 62 % 0 mm
00:25 -18.3 °C -22.2 °C 34476.3 hPa ENE 15.6 km/h 22 km/h 62 % 0 mm
00:30 -18.3 °C -22.2 °C 34476.3 hPa ENE 16.3 km/h 22 km/h 63 % 0 mm
00:35 -18.3 °C -22.2 °C 34476.3 hPa ESE 22 km/h 22.5 km/h 63 % 0 mm
00:40 -18.3 °C -22.2 °C 34476.3 hPa NE 9.8 km/h 22.5 km/h 63 % 0 mm
00:45 -18.3 °C -22.2 °C 34476.3 hPa ENE 22 km/h 25.4 km/h 63 % 0 mm
00:51 -18.3 °C -22.2 °C 34476.3 hPa ENE 19.2 km/h 25.4 km/h 63 % 0 mm
00:56 -18.3 °C -22.2 °C 34476.3 hPa NE 19.2 km/h 25.4 km/h 63 % 0 mm
01:01 -18.3 °C -22.2 °C 34476.3 hPa ENE 14.5 km/h 25.4 km/h 63 % 0 mm
01:06 -18.4 °C -22.2 °C 34476.3 hPa East 16.9 km/h 24.3 km/h 63 % 0 mm
01:11 -18.4 °C -22.2 °C 34476.3 hPa ENE 19.2 km/h 24.3 km/h 63 % 0 mm
01:16 -18.4 °C -22.2 °C 34476.3 hPa NE 16.9 km/h 22 km/h 63 % 0 mm
01:21 -18.4 °C -22.2 °C 34476.3 hPa ENE 18.7 km/h 22 km/h 63 % 0 mm
01:26 -18.5 °C -22.2 °C 34476.3 hPa NNE 11.1 km/h 20.9 km/h 63 % 0 mm
01:31 -18.5 °C -22.2 °C 34428.8 hPa East 15.6 km/h 27.7 km/h 63 % 0 mm
01:36 -18.5 °C -22.2 °C 34428.8 hPa ENE 19.2 km/h 31.9 km/h 63 % 0 mm
01:41 -18.5 °C -22.2 °C 34428.8 hPa East 16.9 km/h 31.9 km/h 63 % 0 mm
01:46 -18.5 °C -22.2 °C 34476.3 hPa ENE 25.4 km/h 26.7 km/h 63 % 0 mm
01:51 -18.5 °C -22.2 °C 34476.3 hPa East 19.2 km/h 25.4 km/h 63 % 0 mm
01:56 -18.6 °C -22.2 °C 34476.3 hPa ENE 14.5 km/h 22 km/h 63 % 0 mm
02:01 -18.6 °C -22.2 °C 34476.3 hPa ENE 19.6 km/h 22 km/h 63 % 0 mm
02:06 -18.6 °C -22.2 °C 34476.3 hPa East 12.2 km/h 22.5 km/h 64 % 0 mm
02:11 -18.6 °C -22.2 °C 34476.3 hPa East 14.5 km/h 22.5 km/h 64 % 0 mm
02:16 -18.6 °C -22.2 °C 34476.3 hPa ENE 22.5 km/h 22.5 km/h 64 % 0 mm
02:21 -18.6 °C -22.2 °C 34476.3 hPa East 19.2 km/h 22.5 km/h 65 % 0 mm
02:26 -18.6 °C -22.2 °C 34476.3 hPa ENE 19.2 km/h 27.7 km/h 65 % 0 mm
02:31 -18.6 °C -22.2 °C 34476.3 hPa NE 16.3 km/h 27.7 km/h 65 % 0 mm
02:36 -18.7 °C -22.2 °C 34476.3 hPa East 12.7 km/h 22 km/h 65 % 0 mm
02:41 -18.7 °C -22.2 °C 34476.3 hPa East 20.9 km/h 22 km/h 65 % 0 mm
02:46 -18.7 °C -22.2 °C 34476.3 hPa NE 19.2 km/h 20.9 km/h 66 % 0 mm
02:51 -18.7 °C -21.7 °C 34476.3 hPa ENE 18.7 km/h 22 km/h 67 % 0 mm
02:57 -18.8 °C -21.7 °C 34476.3 hPa ENE 19.6 km/h 27.2 km/h 67 % 0 mm
03:02 -18.8 °C -21.7 °C 34476.3 hPa NE 15.6 km/h 27.2 km/h 67 % 0 mm
03:07 -18.8 °C -21.7 °C 34476.3 hPa ENE 12.7 km/h 26.7 km/h 67 % 0 mm
03:12 -18.8 °C -22.2 °C 34476.3 hPa ENE 22 km/h 22.5 km/h 67 % 0 mm
03:17 -18.8 °C -22.2 °C 34476.3 hPa ENE 16.3 km/h 22 km/h 67 % 0 mm
03:22 -18.8 °C -22.2 °C 34476.3 hPa ENE 19.6 km/h 26.7 km/h 67 % 0 mm
03:27 -18.8 °C -22.2 °C 34476.3 hPa East 25.4 km/h 26.7 km/h 67 % 0 mm
03:32 -18.8 °C -22.2 °C 34476.3 hPa NE 14.5 km/h 25.4 km/h 67 % 0 mm
03:37 -18.8 °C -22.2 °C 34476.3 hPa East 15 km/h 22.5 km/h 67 % 0 mm
03:42 -18.9 °C -22.2 °C 34476.3 hPa NNE 11.6 km/h 22.5 km/h 68 % 0 mm
03:47 -18.9 °C -22.2 °C 34476.3 hPa NE 19.6 km/h 22.5 km/h 68 % 0 mm
03:52 -18.9 °C -22.2 °C 34476.3 hPa East 18.7 km/h 22.5 km/h 68 % 0 mm
03:57 -18.9 °C -22.2 °C 34476.3 hPa ENE 20.3 km/h 27.7 km/h 67 % 0 mm
04:02 -18.9 °C -22.2 °C 34476.3 hPa ENE 16.9 km/h 27.7 km/h 67 % 0 mm
04:07 -18.9 °C -22.2 °C 34476.3 hPa ENE 15 km/h 26.2 km/h 67 % 0 mm
04:12 -18.9 °C -22.2 °C 34476.3 hPa East 20.9 km/h 22 km/h 67 % 0 mm
04:17 -19 °C -22.2 °C 34476.3 hPa ENE 24.8 km/h 27.7 km/h 67 % 0 mm
04:22 -19 °C -22.2 °C 34476.3 hPa ENE 22 km/h 27.7 km/h 67 % 0 mm
04:27 -19 °C -22.2 °C 34476.3 hPa NE 19.6 km/h 26.7 km/h 67 % 0 mm
04:32 -19 °C -22.2 °C 34476.3 hPa ENE 25.4 km/h 26.7 km/h 66 % 0 mm
04:37 -19.1 °C -22.8 °C 34476.3 hPa NE 22 km/h 25.4 km/h 66 % 0 mm
04:42 -19.1 °C -22.8 °C 34476.3 hPa East 20.9 km/h 22.5 km/h 66 % 0 mm
04:47 -19.1 °C -22.8 °C 34476.3 hPa NNE 19.6 km/h 24.8 km/h 66 % 0 mm
04:52 -19.1 °C -22.8 °C 34476.3 hPa ENE 12.7 km/h 24.8 km/h 66 % 0 mm
04:57 -19.1 °C -22.2 °C 34476.3 hPa East 16.3 km/h 22.5 km/h 67 % 0 mm
05:02 -19.1 °C -22.8 °C 34476.3 hPa ENE 24.8 km/h 28.5 km/h 66 % 0 mm
05:07 -19.1 °C -22.8 °C 34476.3 hPa ENE 16.3 km/h 28.5 km/h 66 % 0 mm
05:12 -19.1 °C -22.8 °C 34476.3 hPa East 15 km/h 26.2 km/h 66 % 0 mm
05:17 -19.1 °C -22.8 °C 34476.3 hPa East 15 km/h 29 km/h 65 % 0 mm
05:23 -19.2 °C -22.8 °C 34476.3 hPa ENE 22.5 km/h 29 km/h 65 % 0 mm
05:28 -19.2 °C -22.8 °C 34476.3 hPa NE 19.2 km/h 27.7 km/h 65 % 0 mm
05:33 -19.2 °C -22.8 °C 34476.3 hPa ENE 19.6 km/h 24.8 km/h 65 % 0 mm
05:38 -19.2 °C -22.8 °C 34476.3 hPa NNE 16.9 km/h 27.7 km/h 65 % 0 mm
05:43 -19.2 °C -22.8 °C 34476.3 hPa ENE 22.5 km/h 31.9 km/h 64 % 0 mm
05:48 -19.2 °C -22.8 °C 34476.3 hPa NE 14.5 km/h 31.9 km/h 64 % 0 mm
05:53 -19.2 °C -22.8 °C 34476.3 hPa ENE 15.6 km/h 27.7 km/h 64 % 0 mm
05:58 -19.2 °C -22.8 °C 34476.3 hPa East 16.3 km/h 28.5 km/h 64 % 0 mm
06:03 -19.3 °C -22.8 °C 34476.3 hPa NE 14 km/h 31.9 km/h 63 % 0 mm
06:08 -19.3 °C -22.8 °C 34476.3 hPa ENE 20.9 km/h 31.9 km/h 63 % 0 mm
06:13 -19.3 °C -22.8 °C 34476.3 hPa NE 18.7 km/h 30.7 km/h 63 % 0 mm
06:18 -19.3 °C -23.3 °C 34476.3 hPa East 22 km/h 30.7 km/h 63 % 0 mm
06:23 -19.3 °C -23.3 °C 34476.3 hPa NE 25.4 km/h 27.2 km/h 63 % 0 mm
06:28 -19.3 °C -23.3 °C 34476.3 hPa NE 32.3 km/h 32.3 km/h 63 % 0 mm
06:33 -19.3 °C -23.3 °C 34476.3 hPa NE 22 km/h 32.3 km/h 63 % 0 mm
06:38 -19.3 °C -23.3 °C 34476.3 hPa NE 19.6 km/h 27.7 km/h 63 % 0 mm
06:43 -19.3 °C -23.3 °C 34476.3 hPa ENE 22 km/h 27.7 km/h 63 % 0 mm
06:48 -19.4 °C -23.3 °C 34476.3 hPa ESE 14 km/h 22.5 km/h 62 % 0 mm
06:53 -19.4 °C -23.3 °C 34476.3 hPa ENE 15.6 km/h 25.4 km/h 62 % 0 mm
06:58 -19.4 °C -23.3 °C 34476.3 hPa ENE 17.9 km/h 25.4 km/h 62 % 0 mm
07:03 -19.4 °C -23.3 °C 34476.3 hPa NE 6.9 km/h 23.8 km/h 63 % 0 mm
07:08 -19.4 °C -23.3 °C 34476.3 hPa East 9.8 km/h 25.4 km/h 63 % 0 mm
07:13 -19.4 °C -23.3 °C 34476.3 hPa NE 9.8 km/h 25.4 km/h 63 % 0 mm
07:18 -19.4 °C -23.3 °C 34476.3 hPa NE 15.6 km/h 22 km/h 63 % 0 mm
07:23 -19.5 °C -23.3 °C 34476.3 hPa East 19.6 km/h 20.9 km/h 62 % 0 mm
07:28 -19.5 °C -23.3 °C 34476.3 hPa ENE 23.8 km/h 23.8 km/h 63 % 0 mm
07:33 -19.5 °C -23.3 °C 34496.6 hPa East 14.5 km/h 23.8 km/h 62 % 0 mm
07:39 -19.5 °C -23.3 °C 34496.6 hPa ENE 19.6 km/h 27.2 km/h 62 % 0 mm
07:44 -19.5 °C -23.3 °C 34496.6 hPa ENE 14 km/h 27.2 km/h 62 % 0 mm
07:49 -19.5 °C -23.3 °C 34496.6 hPa East 14.5 km/h 26.7 km/h 62 % 0 mm
07:54 -19.5 °C -23.3 °C 34496.6 hPa East 15 km/h 26.7 km/h 62 % 0 mm
07:59 -19.6 °C -23.3 °C 34496.6 hPa ENE 19.6 km/h 29 km/h 62 % 0 mm
08:04 -19.5 °C -23.3 °C 34496.6 hPa East 16.9 km/h 29 km/h 62 % 0 mm
08:09 -19.4 °C -23.3 °C 34496.6 hPa East 27.2 km/h 27.7 km/h 61 % 0 mm
08:14 -19.4 °C -23.3 °C 34496.6 hPa East 22.5 km/h 27.7 km/h 60 % 0 mm
08:19 -19.3 °C -23.3 °C 34496.6 hPa ENE 15.6 km/h 26.7 km/h 60 % 0 mm
08:24 -19.3 °C -23.3 °C 34496.6 hPa NE 19.6 km/h 26.7 km/h 60 % 0 mm
08:29 -19.2 °C -23.3 °C 34496.6 hPa ENE 19.2 km/h 27.7 km/h 59 % 0 mm
08:34 -19.2 °C -23.3 °C 34496.6 hPa ENE 16.3 km/h 27.7 km/h 59 % 0 mm
08:39 -19.1 °C -23.3 °C 34496.6 hPa ENE 19.6 km/h 26.2 km/h 59 % 0 mm
08:44 -19 °C -23.3 °C 34496.6 hPa ENE 25.4 km/h 30.7 km/h 58 % 0 mm
08:49 -18.9 °C -23.3 °C 34496.6 hPa ENE 22 km/h 38.3 km/h 57 % 0 mm
08:54 -18.8 °C -23.3 °C 34496.6 hPa ENE 22 km/h 38.3 km/h 56 % 0 mm
08:59 -18.8 °C -23.3 °C 34533.8 hPa ENE 22 km/h 34.8 km/h 55 % 0 mm
09:04 -18.7 °C -23.3 °C 34533.8 hPa ENE 38.3 km/h 38.3 km/h 54 % 0 mm
09:09 -18.7 °C -23.3 °C 34533.8 hPa ENE 11.1 km/h 38.3 km/h 54 % 0 mm
09:14 -18.6 °C -23.3 °C 34533.8 hPa ENE 20.9 km/h 38.3 km/h 54 % 0 mm
09:19 -18.6 °C -23.3 °C 34533.8 hPa ENE 20.3 km/h 34.1 km/h 53 % 0 mm
09:25 -18.4 °C -23.3 °C 34533.8 hPa ENE 27.2 km/h 34.1 km/h 53 % 0 mm
09:30 -18.4 °C -23.3 °C 34533.8 hPa East 19.2 km/h 27.7 km/h 53 % 0 mm
09:35 -18.3 °C -23.3 °C 34533.8 hPa NE 24.3 km/h 33.2 km/h 52 % 0 mm
09:40 -18.3 °C -23.3 °C 34533.8 hPa NE 22 km/h 39.4 km/h 51 % 0 mm
09:45 -18.3 °C -23.3 °C 34533.8 hPa ENE 29.5 km/h 39.9 km/h 51 % 0 mm
09:50 -18.2 °C -23.3 °C 34533.8 hPa ENE 20.3 km/h 39.9 km/h 51 % 0 mm
09:55 -18.2 °C -23.3 °C 34533.8 hPa ENE 27.2 km/h 39.4 km/h 51 % 0 mm
10:00 -18.1 °C -23.3 °C 34567.7 hPa East 37.5 km/h 45.9 km/h 50 % 0 mm
10:05 -18 °C -23.3 °C 34567.7 hPa East 26.7 km/h 45.9 km/h 50 % 0 mm
10:07 -17.9 °C -23.3 °C 34567.7 hPa ENE 16.9 km/h 43 km/h 51 % 0 mm
10:12 -17.9 °C -23.3 °C 34567.7 hPa ENE 19.6 km/h 39.9 km/h 50 % 0 mm
10:17 -17.9 °C -23.3 °C 34567.7 hPa East 27.7 km/h 39.9 km/h 49 % 0 mm
10:22 -17.7 °C -22.8 °C 34567.7 hPa East 24.8 km/h 33.2 km/h 49 % 0 mm
10:27 -17.7 °C -22.8 °C 34567.7 hPa East 31.9 km/h 36.5 km/h 48 % 0 mm
10:32 -17.6 °C -22.8 °C 34533.8 hPa NE 26.2 km/h 37.5 km/h 48 % 0 mm
10:37 -17.6 °C -22.8 °C 34533.8 hPa ENE 26.7 km/h 45.9 km/h 47 % 0 mm
10:42 -17.4 °C -22.8 °C 34533.8 hPa ENE 33.6 km/h 45.9 km/h 47 % 0 mm
10:47 -17.4 °C -22.8 °C 34533.8 hPa East 19.2 km/h 40.7 km/h 47 % 0 mm
10:52 -17.3 °C -22.8 °C 34533.8 hPa ENE 22.5 km/h 45.1 km/h 46 % 0 mm
10:57 -17.2 °C -22.8 °C 34533.8 hPa East 28.5 km/h 45.1 km/h 45 % 0 mm
11:02 -17.2 °C -22.8 °C 34533.8 hPa ENE 26.2 km/h 40.7 km/h 45 % 0 mm
11:07 -17.1 °C -22.8 °C 34533.8 hPa ENE 25.4 km/h 38.3 km/h 44 % 0 mm
11:13 -16.9 °C -22.8 °C 34533.8 hPa ENE 33.2 km/h 39.4 km/h 44 % 0 mm
11:18 -16.8 °C -22.8 °C 34533.8 hPa East 29 km/h 39.4 km/h 44 % 0 mm
11:23 -16.8 °C -23.3 °C 34533.8 hPa ENE 26.2 km/h 38.3 km/h 43 % 0 mm
11:28 -16.6 °C -22.8 °C 34533.8 hPa East 22.5 km/h 38.3 km/h 43 % 0 mm
11:33 -16.6 °C -22.8 °C 34533.8 hPa NE 27.7 km/h 36.5 km/h 43 % 0 mm
11:38 -16.4 °C -22.8 °C 34533.8 hPa ENE 28.5 km/h 35.2 km/h 42 % 0 mm
11:43 -16.4 °C -22.8 °C 34533.8 hPa NE 26.7 km/h 41.7 km/h 42 % 0 mm
11:48 -16.3 °C -22.8 °C 34533.8 hPa East 22 km/h 41.7 km/h 42 % 0 mm
11:53 -16.3 °C -22.8 °C 34533.8 hPa ENE 28.5 km/h 44.6 km/h 41 % 0 mm
11:58 -16.2 °C -22.8 °C 34533.8 hPa ENE 19.6 km/h 44.6 km/h 41 % 0 mm
12:03 -16.1 °C -22.8 °C 34496.6 hPa SSE 28.5 km/h 38.3 km/h 41 % 0 mm
12:08 -16.1 °C -22.8 °C 34496.6 hPa East 26.7 km/h 38.3 km/h 41 % 0 mm
12:13 -15.9 °C -22.8 °C 34496.6 hPa ENE 26.2 km/h 44.6 km/h 41 % 0 mm
12:18 -15.8 °C -22.2 °C 34533.8 hPa East 34.8 km/h 44.6 km/h 41 % 0 mm
12:23 -15.7 °C -22.2 °C 34533.8 hPa ESE 14.5 km/h 34.8 km/h 41 % 0 mm
12:28 -15.7 °C -22.8 °C 34533.8 hPa East 26.7 km/h 41.2 km/h 40 % 0 mm
12:33 -15.7 °C -22.8 °C 34533.8 hPa East 24.8 km/h 41.2 km/h 40 % 0 mm
12:38 -15.6 °C -22.2 °C 34533.8 hPa ENE 37.5 km/h 39.4 km/h 40 % 0 mm
12:43 -15.6 °C -22.8 °C 34533.8 hPa ENE 39.9 km/h 39.9 km/h 39 % 0 mm
12:48 -15.4 °C -22.2 °C 34533.8 hPa East 31.9 km/h 39.9 km/h 40 % 0 mm
12:53 -15.3 °C -22.2 °C 34533.8 hPa NE 27.7 km/h 39.9 km/h 40 % 0 mm
12:58 -15.3 °C -22.2 °C 34533.8 hPa ESE 23.8 km/h 36 km/h 39 % 0 mm
13:03 -15.3 °C -22.2 °C 34496.6 hPa East 16.9 km/h 43.5 km/h 39 % 0 mm
13:09 -15.3 °C -22.2 °C 34496.6 hPa ENE 33.6 km/h 43.5 km/h 39 % 0 mm
13:14 -15.2 °C -22.2 °C 34496.6 hPa East 27.7 km/h 41.7 km/h 39 % 0 mm
13:19 -15.2 °C -22.2 °C 34496.6 hPa East 27.2 km/h 43.5 km/h 39 % 0 mm
13:24 -15.2 °C -22.2 °C 34496.6 hPa ENE 28.5 km/h 43.5 km/h 39 % 0 mm
13:29 -15.1 °C -22.2 °C 34496.6 hPa East 41.2 km/h 43.5 km/h 39 % 0 mm
13:34 -15 °C -21.7 °C 34496.6 hPa NE 27.7 km/h 43.5 km/h 39 % 0 mm
13:39 -14.9 °C -22.2 °C 34496.6 hPa ENE 32.3 km/h 39.9 km/h 38 % 0 mm
13:44 -14.8 °C -22.2 °C 34496.6 hPa NE 24.8 km/h 40.7 km/h 38 % 0 mm
13:49 -14.8 °C -22.2 °C 34496.6 hPa East 31.4 km/h 45.1 km/h 38 % 0 mm
13:54 -14.8 °C -22.2 °C 34496.6 hPa East 20.9 km/h 45.1 km/h 38 % 0 mm
13:59 -14.6 °C -21.7 °C 34496.6 hPa East 26.7 km/h 44.1 km/h 39 % 0 mm
14:04 -14.6 °C -21.7 °C 34496.6 hPa ENE 22 km/h 39.9 km/h 38 % 0 mm
14:09 -14.6 °C -21.7 °C 34496.6 hPa NE 26.7 km/h 45.9 km/h 38 % 0 mm
14:14 -14.6 °C -21.7 °C 34496.6 hPa ESE 22 km/h 45.9 km/h 38 % 0 mm
14:19 -14.6 °C -21.7 °C 34496.6 hPa NE 25.4 km/h 50.5 km/h 38 % 0 mm
14:24 -14.4 °C -21.7 °C 34496.6 hPa East 33.6 km/h 50.5 km/h 37 % 0 mm
14:29 -14.4 °C -21.7 °C 34496.6 hPa East 15.6 km/h 42.2 km/h 38 % 0 mm
14:35 -14.4 °C -22.2 °C 34496.6 hPa ENE 38.3 km/h 45.9 km/h 35 % 0 mm
14:40 -14.4 °C -22.2 °C 34496.6 hPa NE 33.2 km/h 45.9 km/h 36 % 0 mm
14:45 -14.4 °C -22.2 °C 34496.6 hPa ENE 28.5 km/h 45.1 km/h 36 % 0 mm
14:50 -14.4 °C -22.2 °C 34496.6 hPa NE 26.2 km/h 43.5 km/h 35 % 0 mm
14:55 -14.3 °C -21.7 °C 34496.6 hPa NE 27.2 km/h 39.4 km/h 36 % 0 mm
15:00 -14.3 °C -21.7 °C 34496.6 hPa NE 29.5 km/h 56.6 km/h 36 % 0 mm
15:05 -14.3 °C -21.7 °C 34496.6 hPa ENE 19.6 km/h 56.6 km/h 36 % 0 mm
15:10 -14.2 °C -21.7 °C 34496.6 hPa East 33.2 km/h 39.4 km/h 38 % 0 mm
15:14 -14.2 °C -21.7 °C 34496.6 hPa East 29.5 km/h 43.5 km/h 36 % 0 mm
15:19 -14.3 °C -22.2 °C 34496.6 hPa ENE 33.6 km/h 43.5 km/h 35 % 0 mm
15:25 -14.3 °C -22.2 °C 34496.6 hPa NE 20.3 km/h 45.1 km/h 35 % 0 mm
15:30 -14.2 °C -22.2 °C 34496.6 hPa East 28.5 km/h 46.3 km/h 35 % 0 mm
15:35 -14.2 °C -21.7 °C 34496.6 hPa NE 29.5 km/h 46.3 km/h 36 % 0 mm
15:40 -14.2 °C -22.2 °C 34496.6 hPa ENE 31.9 km/h 53.3 km/h 35 % 0 mm
15:45 -14.2 °C -21.7 °C 34496.6 hPa NE 39.9 km/h 53.3 km/h 37 % 0 mm
15:50 -14.2 °C -21.7 °C 34496.6 hPa ENE 32.3 km/h 43 km/h 36 % 0 mm
15:55 -14.2 °C -21.7 °C 34496.6 hPa East 27.2 km/h 43 km/h 37 % 0 mm
16:00 -14.1 °C -21.7 °C 34496.6 hPa East 24.3 km/h 39.9 km/h 38 % 0 mm
16:05 -14.1 °C -21.7 °C 34496.6 hPa East 22.5 km/h 43.5 km/h 38 % 0 mm
16:10 -14.1 °C -21.7 °C 34496.6 hPa NNE 25.4 km/h 43.5 km/h 38 % 0 mm
16:15 -14.2 °C -21.7 °C 34496.6 hPa East 31.9 km/h 34.1 km/h 37 % 0 mm
16:20 -14.2 °C -21.7 °C 34496.6 hPa East 25.4 km/h 46.8 km/h 38 % 0 mm
16:25 -14.2 °C -21.7 °C 34496.6 hPa ENE 34.1 km/h 46.8 km/h 38 % 0 mm
16:30 -14.2 °C -21.7 °C 34496.6 hPa NE 26.2 km/h 41.2 km/h 38 % 0 mm
16:35 -14.2 °C -21.7 °C 34496.6 hPa NE 31.4 km/h 39.9 km/h 38 % 0 mm
16:40 -14.3 °C -21.7 °C 34496.6 hPa ENE 20.3 km/h 39.9 km/h 38 % 0 mm
16:45 -14.3 °C -21.7 °C 34496.6 hPa NE 32.3 km/h 39.4 km/h 38 % 0 mm
16:50 -14.4 °C -21.7 °C 34496.6 hPa ENE 22.5 km/h 45.1 km/h 38 % 0 mm
16:55 -14.4 °C -21.7 °C 34496.6 hPa NE 50.5 km/h 50.5 km/h 38 % 0 mm
17:00 -14.4 °C -21.7 °C 34496.6 hPa ENE 27.2 km/h 50.5 km/h 38 % 0 mm
17:05 -14.4 °C -21.7 °C 34496.6 hPa NE 22.5 km/h 50.5 km/h 38 % 0 mm
17:10 -14.6 °C -21.7 °C 34496.6 hPa East 33.2 km/h 39.4 km/h 39 % 0 mm
17:15 -14.6 °C -21.7 °C 34496.6 hPa ENE 28.5 km/h 34.8 km/h 39 % 0 mm
17:21 -14.6 °C -21.7 °C 34496.6 hPa East 27.7 km/h 45.1 km/h 39 % 0 mm
17:26 -14.7 °C -21.7 °C 34496.6 hPa ENE 18.7 km/h 45.1 km/h 39 % 0 mm
17:31 -14.8 °C -21.7 °C 34496.6 hPa NE 32.3 km/h 37.5 km/h 39 % 0 mm
17:36 -14.8 °C -21.7 °C 34496.6 hPa ENE 22 km/h 44.1 km/h 39 % 0 mm
17:41 -14.9 °C -21.7 °C 34496.6 hPa East 23.8 km/h 44.1 km/h 39 % 0 mm
17:46 -15 °C -21.7 °C 34496.6 hPa East 39.9 km/h 46.3 km/h 39 % 0 mm
17:51 -15.1 °C -22.2 °C 34496.6 hPa ENE 24.8 km/h 46.3 km/h 40 % 0 mm
17:56 -15.2 °C -22.2 °C 34496.6 hPa East 22 km/h 39.4 km/h 40 % 0 mm
18:01 -15.4 °C -22.2 °C 34533.8 hPa ENE 31.9 km/h 37.5 km/h 40 % 0 mm
18:06 -15.4 °C -22.2 °C 34533.8 hPa East 28.5 km/h 41.7 km/h 40 % 0 mm
18:11 -15.5 °C -22.2 °C 34533.8 hPa ENE 19.6 km/h 41.7 km/h 41 % 0 mm
18:16 -15.6 °C -22.2 °C 34533.8 hPa ENE 22 km/h 33.6 km/h 41 % 0 mm
18:21 -15.7 °C -22.2 °C 34533.8 hPa East 32.3 km/h 32.3 km/h 41 % 0 mm
18:26 -15.7 °C -22.2 °C 34533.8 hPa ENE 33.6 km/h 45.9 km/h 41 % 0 mm
18:31 -15.7 °C -22.2 °C 34533.8 hPa ENE 25.4 km/h 45.9 km/h 42 % 0 mm
18:36 -15.8 °C -22.2 °C 34533.8 hPa ENE 25.4 km/h 51 km/h 42 % 0 mm
18:42 -15.8 °C -22.2 °C 34533.8 hPa ENE 24.8 km/h 53.3 km/h 42 % 0 mm
18:47 -15.9 °C -22.2 °C 34567.7 hPa ENE 19.6 km/h 57.9 km/h 42 % 0 mm
18:52 -15.9 °C -22.2 °C 34567.7 hPa ENE 20.9 km/h 57.9 km/h 43 % 0 mm
18:57 -16 °C -22.2 °C 34567.7 hPa East 31.9 km/h 33.6 km/h 43 % 0 mm
19:02 -16 °C -21.7 °C 34567.7 hPa NE 27.7 km/h 45.9 km/h 44 % 0 mm
19:07 -16.1 °C -21.7 °C 34567.7 hPa NE 20.9 km/h 45.9 km/h 45 % 0 mm
19:12 -16.1 °C -21.7 °C 34567.7 hPa ENE 45.1 km/h 49.7 km/h 45 % 0 mm
19:17 -16.1 °C -21.7 °C 34567.7 hPa ENE 33.6 km/h 49.7 km/h 46 % 0 mm
19:27 -16.3 °C -21.7 °C 34567.7 hPa East 22 km/h 39.9 km/h 48 % 0 mm
19:32 -16.3 °C -21.7 °C 34567.7 hPa ENE 15.6 km/h 38.3 km/h 49 % 0 mm
19:37 -16.3 °C -21.1 °C 34567.7 hPa NE 20.9 km/h 46.3 km/h 50 % 0 mm
19:42 -16.4 °C -21.7 °C 34567.7 hPa ENE 26.2 km/h 46.3 km/h 50 % 0 mm
19:47 -16.4 °C -21.1 °C 34567.7 hPa ENE 22.5 km/h 46.8 km/h 51 % 0 mm
19:52 -16.6 °C -21.1 °C 34567.7 hPa NE 34.1 km/h 46.8 km/h 52 % 0 mm
19:57 -16.6 °C -21.1 °C 34567.7 hPa NE 26.2 km/h 42.2 km/h 52 % 0 mm
20:02 -16.7 °C -21.1 °C 34533.8 hPa ENE 41.2 km/h 41.2 km/h 53 % 0 mm
20:07 -16.7 °C -21.1 °C 34533.8 hPa NE 39.9 km/h 45.9 km/h 54 % 0 mm
20:12 -16.8 °C -21.1 °C 34533.8 hPa ENE 28.5 km/h 45.9 km/h 54 % 0 mm
20:17 -16.8 °C -21.1 °C 34567.7 hPa NNE 19.6 km/h 44.1 km/h 55 % 0 mm
20:22 -16.8 °C -21.1 °C 34567.7 hPa NE 41.2 km/h 41.2 km/h 55 % 0 mm
20:27 -16.9 °C -21.1 °C 34567.7 hPa ENE 31.4 km/h 45.1 km/h 55 % 0 mm
20:32 -16.9 °C -21.1 °C 34567.7 hPa ENE 25.4 km/h 45.9 km/h 56 % 0 mm
20:43 -16.9 °C -21.1 °C 34567.7 hPa ENE 45.9 km/h 45.9 km/h 56 % 0 mm
20:48 -17 °C -21.1 °C 34567.7 hPa East 26.2 km/h 45.9 km/h 56 % 0 mm
20:53 -17 °C -21.1 °C 34567.7 hPa East 26.2 km/h 63.2 km/h 56 % 0 mm
20:58 -17 °C -21.1 °C 34567.7 hPa East 26.7 km/h 63.2 km/h 56 % 0 mm
21:03 -17.1 °C -21.1 °C 34567.7 hPa East 39.9 km/h 39.9 km/h 56 % 0 mm
21:08 -17.1 °C -21.1 °C 34567.7 hPa ESE 24.3 km/h 39.9 km/h 56 % 0 mm
21:13 -17.1 °C -21.1 °C 34567.7 hPa NE 25.4 km/h 37.5 km/h 56 % 0 mm
21:18 -17.1 °C -21.1 °C 34601.5 hPa ENE 29.5 km/h 45.1 km/h 56 % 0 mm
21:23 -17.2 °C -21.7 °C 34601.5 hPa ENE 22.5 km/h 45.1 km/h 56 % 0 mm
21:28 -17.2 °C -21.7 °C 34601.5 hPa ENE 31.9 km/h 38.3 km/h 56 % 0 mm
21:33 -17.2 °C -21.7 °C 34601.5 hPa ENE 37 km/h 38.3 km/h 56 % 0 mm
21:38 -17.2 °C -21.7 °C 34601.5 hPa East 22 km/h 38.3 km/h 56 % 0 mm
21:43 -17.3 °C -21.1 °C 34601.5 hPa ENE 32.3 km/h 38.3 km/h 57 % 0 mm
21:48 -17.3 °C -21.1 °C 34601.5 hPa NNE 26.2 km/h 37 km/h 57 % 0 mm
21:53 -17.3 °C -21.1 °C 34601.5 hPa ENE 27.7 km/h 38.3 km/h 57 % 0 mm
21:58 -17.3 °C -21.1 °C 34601.5 hPa NE 28.5 km/h 39.4 km/h 58 % 0 mm
22:03 -17.4 °C -21.1 °C 34601.5 hPa NE 24.8 km/h 39.4 km/h 58 % 0 mm
22:08 -17.4 °C -21.1 °C 34601.5 hPa ENE 27.7 km/h 37.5 km/h 58 % 0 mm
22:13 -17.4 °C -21.1 °C 34601.5 hPa ENE 40.7 km/h 40.7 km/h 58 % 0 mm
22:18 -17.4 °C -21.1 °C 34601.5 hPa ENE 45.9 km/h 45.9 km/h 58 % 0 mm
22:23 -17.4 °C -21.1 °C 34601.5 hPa ENE 27.7 km/h 45.9 km/h 58 % 0 mm
22:28 -17.5 °C -21.1 °C 34601.5 hPa ENE 27.2 km/h 39.9 km/h 59 % 0 mm
22:33 -17.5 °C -21.1 °C 34601.5 hPa East 27.7 km/h 49.2 km/h 59 % 0 mm
22:35 -17.5 °C -21.1 °C 34601.5 hPa ENE 24.3 km/h 49.2 km/h 59 % 0 mm
22:41 -17.6 °C -21.1 °C 34601.5 hPa East 22.5 km/h 49.2 km/h 59 % 0 mm
22:43 -17.6 °C -21.1 °C 34601.5 hPa ENE 27.2 km/h 44.1 km/h 59 % 0 mm
22:48 -17.6 °C -21.1 °C 34601.5 hPa NE 29 km/h 44.1 km/h 59 % 0 mm
Le Gheer Warneton
Courtoisie de Weather Underground - 2.25 mb

Mise a jour : 24/02/2018 22:50:11
Généré par Cumulus 1.9.4 (1099)